User: anonymous   Login
Location: Ahstedt
(52.2048°N, 10.1060°E)
Time: 23:48:26
(UTC+00:00)
Language:

Cosmos 1862 Rocket - Orbit

View from above orbital plane
View from above orbital plane
View from above satellite
View from above satellite

Ground track
Ground track

The orbit is defined by the following mean orbital elements,

1 18153U          26067.26351740 +.00000000 +00000-0 +92715-4 0 00008
2 18153  82.5030 350.3750 0021277  22.4304 337.7837 14.85627974    06
Epoch (UTC): 08 March 2026 06:19:27
Eccentricity: 0.0021277
inclination: 82.5030°
perigee height: 597 km
apogee height: 626 km
right ascension of ascending node: 350.3750°
argument of perigee: 22.4304°
revolutions per day: 14.85627974
mean anomaly at epoch: 337.7837°

The dashed part of the orbit path shows where the satellite is in the earth's shadow,  

DLR